Wind_Speed
16 15 15 15 19 17 17 18 18 18 18 18 17 17 16 15 13 12 11 10 9 7 6 5 5 5 6 6 7 8 9 9 9 9 9 9 8 8 7 7 7 7 6 6 7 7 6 6 6
16 16 15 16 18 15 16 17 18 19 18 18 17 17 16 15 13 12 10 10 8 7 6 5 4 4 5 6 7 8 8 9 9 9 9 8 8 8 8 7 7 7 6 7 7 7 6 6 6
15 15 15 16 14 13 14 16 17 18 18 18 18 17 15 15 14 12 10 9 8 6 5 4 4 4 5 6 7 8 8 9 9 9 8 8 8 8 8 8 7 7 6 6 6 6 6 6 6
14 14 15 15 12 12 13 15 16 17 18 18 17 17 16 15 13 12 11 10 8 6 5 4 3 4 5 6 6 7 8 8 8 8 8 8 8 8 8 8 7 7 6 6 6 6 6 7 6
13 13 14 11 11 11 11 13 15 16 17 17 17 17 16 15 14 12 11 10 8 6 5 4 3 3 5 5 6 6 7 7 8 8 8 8 8 8 8 8 8 7 6 6 7 7 6 6 6
12 13 10 8 10 11 11 12 13 14 15 15 16 16 16 15 14 13 12 10 9 7 5 3 2 3 3 4 5 6 6 7 8 8 8 8 8 7 8 8 8 7 6 6 6 7 6 6 6
11 11 8 7 8 10 10 10 12 13 14 14 14 15 15 15 14 13 12 10 9 7 5 3 2 2 2 3 4 5 6 6 7 8 8 8 7 7 8 8 8 7 7 6 6 6 6 6 6
9 9 7 6 7 8 10 10 11 12 13 13 13 14 14 15 14 13 11 10 8 7 6 4 3 1 2 3 4 5 6 6 7 7 7 7 7 7 8 8 8 7 7 6 6 6 6 6 6
8 8 5 5 6 7 8 9 10 10 11 12 12 12 13 13 13 12 11 10 8 7 6 6 4 1 1 2 3 4 6 6 7 7 7 7 7 7 7 7 7 7 6 6 6 6 6 6 6
6 6 4 5 5 6 6 7 8 9 10 11 11 11 12 13 12 12 11 9 8 7 6 6 4 2 1 2 3 3 4 5 6 6 6 7 6 6 6 6 6 6 6 6 6 6 5 5 5
5 4 4 5 5 5 6 6 7 8 9 10 10 11 11 12 12 11 10 9 8 7 6 5 3 2 1 1 2 2 3 4 5 5 6 7 6 6 6 6 6 6 6 6 5 5 5 4 4
3 3 3 3 3 4 5 5 6 7 8 9 10 11 11 12 11 10 9 8 7 6 6 5 4 1 0 1 1 2 3 3 4 5 6 6 6 6 6 6 6 6 6 6 5 4 4 4 4
2 2 2 2 2 3 4 4 5 6 7 8 10 11 12 11 10 9 9 9 7 7 6 5 4 2 1 1 2 2 2 3 3 5 5 6 7 6 6 6 6 6 5 5 4 4 4 4 4
0 0 1 2 3 3 3 4 5 6 7 9 10 11 11 10 11 10 10 9 8 8 7 6 5 3 2 2 2 3 2 2 3 4 5 6 6 7 6 6 6 6 6 5 5 4 4 4 4
1 1 2 3 3 3 4 4 5 6 8 8 9 11 11 11 11 11 10 10 9 8 8 7 6 4 3 3 3 3 3 2 3 4 5 6 6 6 7 7 7 7 7 6 6 5 4 4 4
3 2 3 4 3 4 4 4 6 7 8 9 9 10 10 11 11 11 10 10 10 9 9 8 7 5 4 4 4 4 4 3 4 5 6 6 6 6 7 7 7 7 7 7 6 5 5 4 4
4 4 4 5 4 4 5 5 7 7 8 9 10 10 10 11 12 12 11 11 11 10 9 8 6 6 5 5 4 5 5 5 5 5 6 6 7 7 7 8 8 8 8 8 7 6 5 5 4
7 6 6 6 5 5 6 6 7 8 8 10 11 11 11 12 12 12 11 12 12 12 10 8 7 7 6 5 6 6 6 7 7 6 6 7 7 7 7 8 9 10 10 9 8 7 6 6 6
8 8 9 8 7 6 6 7 8 9 9 10 11 11 12 13 13 12 11 12 12 12 11 10 9 8 7 7 7 7 8 7 7 7 7 7 7 7 7 8 9 10 10 9 9 8 8 7 7
10 10 11 10 8 8 8 8 9 10 10 10 11 12 13 13 13 12 12 12 12 12 11 11 9 9 9 8 8 7 7 7 8 8 7 8 8 8 8 10 10 11 11 11 10 10 9 8 7
12 12 12 12 10 9 9 10 11 11 11 11 11 12 13 13 14 14 13 13 11 11 11 11 11 10 9 8 7 8 7 7 8 7 7 7 8 8 9 10 11 11 12 11 11 10 10 9 9
14 14 13 12 11 11 10 9 13 12 12 12 12 12 13 13 13 13 13 13 12 11 11 12 11 10 9 7 7 7 7 7 7 7 7 7 8 9 9 10 11 12 12 12 12 12 11 11 11
16 15 14 13 13 13 13 11 12 13 12 12 12 12 13 13 13 14 13 13 13 13 11 11 11 9 8 7 7 7 7 7 7 7 8 8 8 9 10 10 12 13 13 13 13 13 13 12 12
17 15 15 14 14 14 14 13 12 13 12 12 12 12 12 13 13 13 13 13 12 12 11 10 10 8 7 7 7 7 7 8 8 9 9 9 10 10 11 11 12 13 14 14 14 14 14 14 14
18 16 15 14 14 15 14 13 14 13 12 12 12 11 12 12 12 12 12 12 12 11 10 9 9 8 8 8 8 8 7 8 8 9 10 11 11 11 11 12 13 13 14 15 15 15 15 15 16
19 18 16 14 13 14 15 14 14 13 12 12 11 11 11 12 11 11 11 12 13 12 10 9 9 9 8 8 8 8 8 8 8 8 9 10 11 11 11 12 13 13 14 15 16 16 16 16 17
22 20 19 18 17 15 16 15 14 13 13 12 11 11 11 11 11 11 11 12 13 12 10 10 10 9 9 9 8 8 8 9 9 9 9 9 10 11 12 13 13 14 15 16 17 17 18 18 18
23 22 21 18 17 15 16 15 13 13 13 12 12 11 11 12 12 12 11 12 11 10 9 9 9 8 8 8 8 8 9 9 9 9 9 9 11 12 12 14 15 15 15 16 17 19 19 20 20
25 24 22 20 19 15 13 14 14 13 13 12 11 11 11 12 12 11 11 11 10 8 8 8 8 8 8 8 8 8 8 9 9 9 10 10 11 11 12 13 15 16 16 17 18 19 20 21 22
26 24 23 21 20 17 15 15 16 14 14 13 13 13 12 11 11 11 11 10 9 8 8 9 8 7 7 7 8 8 8 8 9 10 10 10 11 11 12 13 14 16 17 17 18 19 21 22 22
Wind_Direction
81 78 73 71 69 73 74 73 72 71 70 69 68 68 68 68 69 73 77 77 77 84 93 105 118 132 137 138 138 135 132 130 127 127 125 122 120 118 119 121 122 121 121 121 122 123 120 119 120
81 77 72 68 72 71 69 71 70 70 69 68 66 66 65 64 64 68 71 74 74 77 87 100 115 133 144 146 145 141 137 132 130 128 127 123 120 118 119 121 122 121 120 119 122 124 122 122 120
83 76 69 69 73 73 71 69 69 68 64 63 62 63 63 61 60 61 64 68 68 70 79 93 113 133 145 148 146 142 138 134 132 128 129 129 125 125 124 125 124 124 124 126 126 127 124 122 118
84 75 68 69 66 67 70 67 67 63 59 58 58 58 59 59 56 56 58 60 61 65 76 90 108 128 139 147 147 144 142 138 134 129 128 130 130 129 129 128 127 126 124 123 123 122 123 124 120
86 75 69 64 59 62 67 65 63 60 57 55 55 54 54 54 52 51 51 52 55 57 67 84 112 131 143 147 149 149 148 145 141 135 132 128 131 135 132 130 130 129 125 122 122 126 122 122 119
89 78 78 64 54 56 59 59 58 58 56 54 53 51 50 50 48 46 47 49 53 53 54 64 98 123 135 145 148 152 151 148 146 143 139 133 128 132 134 128 129 129 126 125 123 126 125 127 122
91 87 81 68 54 51 54 54 55 56 54 52 50 48 46 46 44 41 41 44 48 49 45 50 82 119 141 151 152 160 158 153 149 147 142 136 132 132 132 129 128 128 126 128 129 127 131 132 128
89 84 71 62 54 48 48 51 51 49 47 46 45 45 42 40 38 38 36 36 39 40 40 40 52 110 143 158 153 156 159 159 158 155 149 144 142 140 136 133 132 131 131 132 132 130 132 131 128
89 86 73 63 57 55 49 50 47 43 41 38 37 38 36 33 32 32 31 31 32 32 30 28 23 45 137 158 153 155 159 160 161 163 161 157 151 147 141 139 138 136 136 135 134 131 137 137 131
91 92 73 63 61 60 53 47 44 39 34 30 28 28 26 26 25 25 26 26 25 22 20 17 15 35 111 155 147 145 157 167 165 166 168 166 159 155 151 149 145 143 143 141 138 135 139 142 136
94 88 72 63 62 61 57 47 41 35 28 20 18 18 18 16 17 17 18 17 15 12 12 11 15 34 117 148 164 154 157 171 174 172 175 173 169 165 162 159 155 153 150 148 148 145 145 145 143
97 83 73 69 59 54 52 45 37 27 18 11 11 10 8 9 9 8 6 5 7 3 360 357 7 23 168 261 209 202 178 177 181 179 177 176 178 177 175 172 168 166 160 156 153 154 156 156 152
105 90 79 56 47 39 37 35 25 13 4 4 5 7 9 8 5 360 0 360 356 349 346 347 352 349 263 265 252 230 199 172 172 183 180 181 186 186 187 186 182 177 172 167 161 156 154 157 158
107 55 13 22 31 36 30 20 8 360 354 353 358 3 6 6 3 355 351 351 354 349 345 344 340 337 309 276 240 227 222 196 187 189 196 197 192 191 195 198 198 193 185 179 172 170 168 164 168
262 304 338 1 15 24 20 3 346 348 348 346 351 357 358 356 354 351 346 344 348 344 341 333 331 325 312 278 250 245 243 232 204 200 201 208 210 203 201 207 210 206 200 195 189 187 186 184 188
267 290 306 324 350 1 4 342 337 341 344 342 345 349 352 347 344 344 343 340 337 334 329 323 319 318 312 281 256 251 243 234 220 211 210 215 217 215 213 213 212 212 209 204 202 200 200 204 212
269 273 279 297 323 336 342 331 335 335 339 338 338 340 343 341 339 338 337 332 328 326 326 321 314 301 297 286 265 256 244 236 231 226 225 225 222 221 219 218 215 211 212 212 208 205 206 212 221
257 267 277 287 305 319 325 321 329 326 327 327 329 333 335 334 335 335 331 326 323 321 322 320 308 299 291 279 266 262 251 239 237 237 236 233 226 223 226 224 217 214 213 214 215 215 218 220 226
257 266 275 286 298 309 315 314 317 320 320 323 326 329 329 329 332 332 327 323 320 320 318 310 303 301 288 278 271 267 258 247 239 237 242 235 225 224 220 214 216 214 214 216 219 221 225 227 228
257 263 270 282 292 301 307 308 311 315 316 318 321 324 324 324 324 326 324 321 321 321 319 314 302 294 290 283 275 269 263 253 249 245 244 236 225 222 218 216 216 216 215 217 223 224 226 230 235
254 257 264 276 290 294 301 306 307 310 312 312 312 317 318 318 318 319 320 322 320 318 317 318 310 297 287 279 271 272 268 257 254 247 240 233 227 223 220 220 220 220 220 221 225 228 231 238 243
252 258 266 275 280 285 295 289 300 306 308 309 306 307 313 317 317 320 321 322 316 312 312 312 308 300 287 278 271 267 264 257 249 241 237 229 231 233 233 231 227 224 226 228 231 235 238 241 247
252 260 266 272 276 281 289 291 292 303 303 304 302 303 308 311 313 317 317 316 314 311 307 308 310 296 284 275 269 267 264 255 249 248 242 241 239 238 239 239 233 229 230 233 237 240 243 246 251
254 259 265 271 274 276 281 286 290 295 298 299 299 301 304 305 306 309 313 313 311 311 303 302 308 303 291 276 265 264 260 258 256 251 246 245 246 243 242 239 237 235 234 236 241 243 245 250 253
250 255 262 268 272 274 278 282 284 292 296 295 297 300 302 305 305 309 314 318 318 314 306 298 301 295 290 278 263 261 263 264 260 252 252 251 252 247 243 239 241 242 239 241 243 246 250 253 255
247 249 250 254 264 272 278 280 286 291 294 294 293 297 301 301 301 306 313 318 320 316 309 298 296 292 285 278 267 265 266 265 264 260 258 252 249 247 247 244 244 246 246 246 248 250 253 258 259
246 247 249 253 258 262 273 281 283 286 288 289 288 291 295 300 300 303 310 314 317 313 305 299 295 289 285 277 269 268 272 266 262 265 262 256 252 252 251 248 250 253 254 253 252 253 255 259 262
245 246 248 250 256 262 273 280 279 281 283 283 282 285 291 297 299 302 308 313 317 315 312 310 302 293 285 278 275 275 268 266 264 267 265 260 258 260 260 253 253 255 258 257 256 256 258 260 263
245 245 246 249 252 256 266 275 276 275 278 278 279 282 287 291 297 301 305 310 314 313 310 311 306 296 291 289 283 274 270 267 266 267 266 264 265 264 262 260 260 259 259 258 258 258 260 261 263
245 245 247 250 255 256 255 266 274 271 272 272 274 276 281 286 292 299 303 307 311 308 306 310 309 301 297 287 283 277 271 273 272 268 265 268 267 268 267 265 265 263 262 262 262 263 264 265 266
Height
5915 5915 5915 5916 5916 5917 5914 5913 5912 5910 5909 5907 5906 5905 5904 5904 5904 5906 5903 5901 5901 5901 5900 5900 5901 5901 5901 5901 5901 5901 5901 5901 5901 5901 5902 5902 5902 5902 5903 5903 5904 5904 5904 5905 5905 5905 5906 5906 5906
5917 5917 5918 5918 5920 5919 5917 5915 5913 5912 5911 5909 5907 5906 5906 5905 5904 5904 5903 5902 5902 5902 5901 5901 5901 5901 5901 5901 5901 5901 5902 5902 5902 5902 5902 5902 5903 5903 5903 5904 5904 5905 5905 5905 5905 5906 5906 5906 5907
5920 5920 5921 5921 5921 5921 5919 5917 5915 5914 5912 5910 5909 5908 5907 5906 5906 5905 5904 5903 5903 5902 5902 5902 5902 5902 5902 5902 5902 5902 5902 5902 5902 5902 5903 5903 5903 5903 5904 5904 5905 5905 5905 5906 5906 5906 5907 5907 5907
5922 5923 5924 5925 5923 5922 5920 5919 5917 5915 5914 5912 5911 5910 5909 5908 5907 5906 5905 5904 5903 5903 5902 5902 5902 5902 5902 5902 5903 5902 5902 5902 5903 5903 5903 5903 5903 5904 5904 5904 5905 5905 5906 5906 5906 5907 5907 5907 5908
5923 5925 5927 5927 5925 5924 5922 5920 5918 5917 5915 5914 5912 5911 5910 5909 5908 5907 5906 5905 5904 5903 5903 5903 5903 5903 5902 5902 5903 5903 5903 5903 5903 5903 5903 5904 5904 5904 5904 5905 5905 5906 5906 5907 5907 5907 5907 5908 5908
5926 5927 5930 5929 5927 5925 5923 5921 5920 5918 5917 5916 5914 5913 5911 5910 5909 5908 5906 5905 5904 5904 5904 5903 5903 5903 5902 5902 5903 5903 5903 5903 5903 5903 5904 5904 5904 5904 5905 5905 5906 5906 5907 5907 5907 5908 5908 5909 5909
5928 5929 5930 5929 5928 5927 5925 5923 5921 5920 5919 5917 5916 5914 5912 5911 5909 5908 5907 5906 5905 5905 5904 5903 5903 5902 5902 5902 5902 5903 5903 5903 5903 5904 5904 5904 5905 5905 5905 5905 5906 5907 5907 5907 5908 5908 5909 5909 5910
5928 5930 5930 5930 5929 5928 5926 5924 5923 5921 5920 5919 5917 5915 5914 5912 5910 5909 5908 5907 5906 5905 5904 5903 5903 5902 5902 5902 5902 5902 5903 5903 5903 5904 5904 5905 5905 5905 5905 5906 5906 5907 5907 5908 5908 5909 5909 5910 5911
5929 5932 5932 5931 5930 5929 5927 5926 5924 5923 5921 5920 5918 5916 5915 5913 5911 5910 5909 5908 5907 5906 5905 5903 5902 5902 5902 5902 5902 5902 5902 5903 5903 5904 5904 5905 5905 5906 5906 5906 5907 5907 5908 5908 5909 5909 5910 5911 5911
5930 5932 5931 5931 5930 5929 5928 5927 5925 5924 5922 5921 5919 5917 5915 5913 5912 5911 5909 5908 5907 5906 5905 5903 5902 5902 5902 5902 5901 5901 5902 5903 5903 5904 5904 5905 5905 5906 5906 5907 5907 5908 5908 5909 5909 5910 5910 5911 5912
5930 5931 5931 5930 5929 5929 5928 5927 5926 5924 5923 5922 5920 5918 5916 5914 5912 5911 5910 5908 5907 5906 5905 5904 5902 5902 5902 5902 5902 5901 5902 5902 5903 5903 5904 5905 5905 5906 5907 5907 5907 5908 5908 5909 5910 5910 5911 5911 5912
5930 5930 5930 5930 5929 5929 5928 5927 5926 5925 5924 5922 5920 5918 5916 5913 5911 5910 5909 5908 5907 5906 5905 5903 5902 5901 5901 5901 5901 5901 5901 5902 5902 5903 5904 5905 5905 5906 5907 5907 5908 5908 5909 5909 5910 5910 5911 5912 5912
5930 5930 5930 5930 5929 5929 5928 5927 5926 5925 5924 5922 5920 5918 5915 5913 5911 5910 5909 5908 5907 5906 5905 5903 5902 5901 5901 5901 5901 5901 5901 5901 5902 5903 5903 5904 5905 5906 5907 5907 5908 5908 5909 5909 5910 5910 5911 5912 5912
5929 5929 5930 5929 5929 5929 5928 5928 5927 5926 5924 5922 5920 5918 5915 5914 5912 5911 5910 5908 5907 5905 5904 5903 5902 5901 5901 5901 5901 5901 5901 5901 5901 5902 5903 5904 5904 5905 5906 5907 5908 5908 5909 5909 5910 5911 5911 5912 5912
5929 5929 5930 5929 5929 5929 5929 5928 5927 5926 5924 5922 5920 5918 5916 5914 5913 5911 5909 5908 5907 5905 5904 5903 5902 5901 5900 5900 5900 5900 5900 5900 5901 5901 5902 5903 5904 5904 5905 5906 5907 5908 5908 5909 5910 5910 5911 5912 5912
5928 5929 5930 5929 5929 5928 5930 5930 5927 5925 5924 5922 5920 5919 5917 5915 5913 5911 5909 5908 5906 5905 5903 5902 5901 5900 5900 5900 5900 5900 5900 5900 5900 5900 5901 5901 5902 5903 5904 5905 5906 5907 5908 5909 5910 5910 5911 5912 5912
5927 5929 5929 5929 5928 5928 5928 5928 5927 5925 5924 5922 5920 5918 5917 5915 5913 5911 5909 5907 5905 5904 5902 5901 5900 5899 5899 5899 5899 5898 5898 5898 5899 5899 5899 5900 5901 5902 5903 5904 5904 5906 5907 5908 5909 5910 5910 5911 5911
5927 5927 5927 5927 5927 5927 5927 5927 5926 5924 5923 5921 5920 5918 5916 5914 5912 5910 5908 5906 5904 5903 5901 5900 5898 5898 5897 5897 5897 5897 5897 5897 5897 5897 5898 5898 5899 5900 5901 5902 5903 5904 5906 5907 5908 5909 5909 5910 5911
5924 5925 5925 5925 5925 5926 5926 5925 5924 5923 5922 5921 5919 5917 5915 5913 5911 5909 5907 5905 5903 5902 5900 5899 5897 5896 5896 5896 5895 5895 5895 5895 5895 5895 5896 5897 5897 5898 5899 5900 5901 5903 5904 5905 5906 5907 5908 5909 5910
5921 5922 5923 5923 5923 5924 5924 5924 5923 5922 5920 5919 5918 5916 5914 5912 5910 5908 5906 5904 5902 5900 5898 5897 5895 5894 5894 5894 5894 5894 5894 5894 5894 5894 5894 5895 5895 5897 5898 5899 5900 5901 5902 5904 5905 5906 5907 5908 5908
5919 5920 5920 5921 5921 5922 5922 5922 5921 5920 5919 5918 5916 5915 5913 5910 5908 5906 5904 5902 5900 5899 5897 5895 5894 5893 5892 5892 5892 5892 5892 5893 5893 5893 5893 5893 5894 5895 5896 5897 5898 5899 5901 5902 5903 5904 5906 5906 5907
5916 5917 5917 5918 5919 5920 5921 5922 5920 5918 5917 5915 5914 5912 5911 5909 5907 5905 5902 5900 5899 5897 5895 5894 5892 5891 5890 5890 5890 5890 5890 5891 5891 5891 5892 5892 5892 5894 5894 5895 5896 5898 5899 5900 5901 5902 5903 5904 5905
5913 5914 5915 5916 5917 5918 5918 5919 5920 5915 5914 5913 5911 5910 5909 5907 5905 5903 5901 5899 5897 5895 5894 5892 5891 5889 5889 5889 5889 5889 5889 5889 5889 5890 5890 5890 5891 5892 5892 5893 5894 5895 5897 5898 5899 5900 5901 5902 5902
5909 5911 5912 5913 5914 5915 5915 5916 5916 5914 5912 5911 5909 5908 5907 5905 5903 5901 5899 5897 5895 5893 5892 5891 5890 5888 5888 5888 5888 5887 5887 5887 5887 5888 5888 5888 5889 5890 5890 5891 5892 5893 5894 5895 5896 5897 5898 5898 5899
5906 5908 5910 5911 5912 5913 5912 5912 5912 5910 5909 5908 5907 5906 5904 5902 5901 5899 5897 5895 5893 5891 5890 5889 5888 5887 5886 5886 5886 5886 5886 5885 5885 5886 5886 5886 5887 5887 5888 5888 5889 5890 5891 5892 5893 5894 5894 5895 5896
5902 5905 5908 5910 5911 5910 5908 5909 5909 5907 5906 5905 5904 5903 5902 5900 5898 5897 5895 5893 5891 5889 5888 5887 5886 5885 5885 5884 5884 5884 5883 5883 5883 5883 5883 5883 5884 5884 5885 5886 5886 5887 5888 5889 5890 5891 5891 5892 5892
5897 5900 5903 5905 5905 5906 5906 5905 5905 5904 5903 5902 5902 5901 5899 5898 5896 5895 5893 5892 5889 5887 5886 5884 5884 5883 5882 5882 5882 5882 5881 5881 5881 5881 5881 5881 5881 5882 5883 5883 5883 5884 5885 5885 5886 5887 5887 5888 5888
5893 5895 5897 5900 5901 5903 5903 5902 5903 5901 5900 5899 5899 5898 5897 5896 5895 5893 5892 5890 5887 5885 5884 5882 5882 5881 5881 5880 5880 5880 5879 5879 5879 5879 5879 5878 5879 5879 5879 5880 5880 5881 5881 5881 5882 5882 5883 5883 5883
5888 5890 5893 5895 5897 5900 5902 5902 5898 5898 5897 5897 5896 5896 5895 5894 5893 5892 5890 5888 5886 5884 5883 5882 5881 5880 5879 5878 5878 5878 5877 5877 5877 5877 5876 5876 5876 5876 5877 5877 5877 5877 5877 5877 5877 5878 5878 5878 5878
5882 5885 5888 5891 5892 5894 5897 5900 5894 5894 5894 5894 5893 5893 5893 5892 5891 5890 5888 5886 5885 5883 5882 5880 5879 5878 5877 5877 5876 5876 5875 5875 5874 5874 5874 5874 5874 5874 5874 5874 5873 5873 5873 5873 5873 5873 5873 5873 5873